TimeCDT,TemperatureF,Dew PointF,Humidity,Sea Level PressureIn,VisibilityMPH,Wind Direction,Wind SpeedMPH,Gust SpeedMPH,PrecipitationIn,Events,Conditions,WindDirDegrees,DateUTC
12:53 AM,54.0,48.9,83,30.08,10.0,NNW,4.6,-,N/A,,Clear,340,2012-10-08 05:53:00
1:53 AM,53.1,48.9,86,30.08,10.0,North,3.5,-,N/A,,Clear,10,2012-10-08 06:53:00
2:53 AM,53.1,48.9,86,30.06,10.0,North,4.6,-,N/A,,Clear,350,2012-10-08 07:53:00
3:53 AM,53.1,48.9,86,30.06,10.0,North,4.6,-,N/A,,Clear,350,2012-10-08 08:53:00
4:53 AM,53.1,48.0,83,30.06,10.0,NE,3.5,-,N/A,,Clear,50,2012-10-08 09:53:00
5:53 AM,51.1,48.0,89,30.05,10.0,Calm,Calm,-,N/A,,Clear,0,2012-10-08 10:53:00
6:53 AM,51.1,46.9,86,30.08,10.0,North,6.9,-,N/A,,Clear,350,2012-10-08 11:53:00
7:53 AM,54.0,46.9,77,30.10,10.0,Calm,Calm,-,N/A,,Clear,0,2012-10-08 12:53:00
8:53 AM,57.9,46.9,67,30.14,10.0,North,9.2,-,N/A,,Clear,350,2012-10-08 13:53:00
9:53 AM,63.0,48.0,58,30.13,10.0,Variable,3.5,-,N/A,,Clear,0,2012-10-08 14:53:00
10:53 AM,66.9,46.9,49,30.13,10.0,NNW,9.2,-,N/A,,Clear,340,2012-10-08 15:53:00
11:53 AM,69.1,48.9,49,30.11,10.0,NNW,8.1,-,N/A,,Clear,330,2012-10-08 16:53:00
12:53 PM,71.1,48.9,45,30.09,10.0,Variable,5.8,17.3,N/A,,Clear,0,2012-10-08 17:53:00
1:53 PM,73.0,48.9,42,30.06,10.0,NW,9.2,19.6,N/A,,Clear,310,2012-10-08 18:53:00
2:53 PM,73.9,50.0,43,30.05,10.0,NNW,9.2,-,N/A,,Clear,340,2012-10-08 19:53:00
3:53 PM,73.0,50.0,44,30.04,10.0,North,8.1,-,N/A,,Clear,350,2012-10-08 20:53:00
4:53 PM,71.1,48.9,45,30.04,10.0,NNW,9.2,17.3,N/A,,Clear,340,2012-10-08 21:53:00
5:53 PM,68.0,50.0,52,30.06,10.0,NNW,8.1,-,N/A,,Clear,340,2012-10-08 22:53:00
6:53 PM,62.1,51.1,67,30.08,10.0,NNW,6.9,-,N/A,,Clear,330,2012-10-08 23:53:00
7:53 PM,59.0,50.0,72,30.09,10.0,North,3.5,-,N/A,,Clear,350,2012-10-09 00:53:00
8:53 PM,57.9,50.0,75,30.11,10.0,Calm,Calm,-,N/A,,Clear,0,2012-10-09 01:53:00
9:53 PM,55.9,50.0,80,30.11,10.0,North,4.6,-,N/A,,Clear,350,2012-10-09 02:53:00
10:53 PM,55.0,48.9,80,30.11,10.0,North,4.6,-,N/A,,Clear,10,2012-10-09 03:53:00
11:53 PM,54.0,48.9,83,30.12,10.0,North,4.6,-,N/A,,Clear,350,2012-10-09 04:53:00